DW2182 Weather Reports


time (UTC)temp
C
wind
direction
speed
KPH
gust
KPH
rain 1hr
cm
rain 24hr
cm
rain mn
cm
humidity
%
barometer
mb
20260507051517 3 0.0 0.0 0.00 0.00 0.00 65 1014.0
20260507050516 3 0.0 0.0 0.00 0.00 0.00 64 1014.0
20260507045517 3 0.0 0.0 0.00 0.00 0.00 63 1013.9
20260507044556 3 0.0 0.0 0.00 0.00 0.00 63 1013.9
20260507043516 3 0.0 0.0 0.00 0.00 0.00 63 1014.0
20260507042537 3 0.0 0.0 0.00 0.00 0.00 61 1013.9
20260507041537 4 0.0 0.0 0.00 0.00 0.00 61 1014.0
20260507040517 4 0.0 0.0 0.00 0.00 0.00 61 1014.1
20260507035517 4 0.0 0.0 0.00 0.00 0.00 59 1014.1
20260507034517 5 0.0 0.0 0.00 0.00 0.00 58 1014.2
20260507033537 5 0.0 0.0 0.00 0.00 0.00 56 1014.2
20260507032516 5 0.0 0.0 0.00 0.00 0.00 54 1014.4
20260507031516 6 0.0 0.0 0.00 0.00 0.00 54 1014.4
20260507030516 6 0.0 0.0 0.00 0.00 0.00 52 1014.6
20260507025536 6 0.0 0.0 0.00 0.00 0.00 52 1014.5
20260507024536 6 0 1.6 3.2 0.00 0.00 0.00 52 1014.5
20260507023536 6 0.0 3.2 0.00 0.00 0.00 50 1014.6
20260507022516 7 0.0 3.2 0.00 0.00 0.00 49 1014.5
20260507021516 7 0.0 3.2 0.00 0.00 0.00 48 1014.4
20260507020517 7 0.0 0.0 0.00 0.00 0.00 48 1014.4
20260507015517 8 0.0 0.0 0.00 0.00 0.00 47 1014.5
20260507014517 8 0.0 0.0 0.00 0.00 0.00 45 1014.5
20260507013517 8 0 1.6 3.2 0.00 0.00 0.00 45 1014.4
20260507012516 9 158 1.6 6.4 0.00 0.00 0.00 43 1014.5
20260507011517 9 0.0 3.2 0.00 0.00 0.00 43 1014.4
20260507010517 9 158 3.2 6.4 0.00 0.00 0.00 42 1014.4
20260507005537 9 158 3.2 14.5 0.00 0.00 0.00 41 1014.4
20260507004536 10 158 3.2 8.0 0.00 0.00 0.00 41 1014.4
20260507003516 10 135 4.8 12.9 0.00 0.00 0.00 41 1014.4
20260507002516 10 135 4.8 12.9 0.00 0.00 0.00 41 1014.4
20260507001516 10 158 6.4 16.1 0.00 0.00 0.00 41 1014.5
20260507000537 10 0 8.0 16.1 0.00 0.00 0.00 41 1014.4
20260506235536 10 158 6.4 12.9 0.00 0.00 0.00 41 1014.6
20260506234516 10 158 6.4 12.9 0.00 0.00 0.00 41 1014.7
20260506233516 10 135 6.4 16.1 0.00 0.00 0.00 40 1014.7
20260506232536 10 135 6.4 17.7 0.00 0.00 0.00 40 1014.7
20260506231516 10 158 4.8 12.9 0.00 0.00 0.00 41 1014.7
20260506230517 10 158 8.0 17.7 0.00 0.00 0.00 40 1014.8
20260506225516 10 135 8.0 19.3 0.00 0.00 0.00 39 1014.8
20260506224517 10 158 6.4 16.1 0.00 0.00 0.00 39 1014.9
20260506223516 11 158 11.3 25.7 0.00 0.00 0.00 39 1015.2
20260506222516 11 135 11.3 24.1 0.00 0.00 0.00 40 1015.2
20260506221516 11 135 8.0 17.7 0.00 0.00 0.00 39 1015.4
20260506220517 11 135 11.3 25.7 0.00 0.00 0.00 40 1015.3
20260506215516 11 135 9.7 20.9 0.00 0.00 0.00 39 1015.3
20260506214516 11 135 11.3 20.9 0.00 0.00 0.00 39 1015.4
20260506213516 11 135 12.9 20.9 0.00 0.00 0.00 39 1015.6
20260506212516 11 135 9.7 19.3 0.00 0.00 0.00 39 1015.6
20260506211516 11 135 9.7 17.7 0.00 0.00 0.00 39 1015.8
20260506210516 11 135 12.9 22.5 0.00 0.00 0.00 40 1015.9
20260506205516 11 135 9.7 19.3 0.00 0.00 0.00 40 1016.1
20260506204536 11 135 9.7 20.9 0.00 0.00 0.00 41 1016.0
20260506203516 10 135 8.0 17.7 0.00 0.00 0.00 41 1016.2
20260506202516 10 135 6.4 16.1 0.00 0.00 0.00 42 1016.0
20260506201516 10 135 9.7 17.7 0.00 0.00 0.00 43 1016.3
20260506200516 10 135 8.0 16.1 0.00 0.00 0.00 41 1016.2
20260506195516 11 135 11.3 29.0 0.00 0.00 0.00 40 1016.5
20260506194536 10 135 9.7 17.7 0.00 0.00 0.00 43 1016.6
20260506193516 10 135 9.7 20.9 0.00 0.00 0.00 42 1016.5
20260506192516 10 135 9.7 17.7 0.00 0.00 0.00 43 1016.5
20260506191516 10 135 9.7 29.0 0.00 0.00 0.00 41 1016.6
20260506190515 9 135 6.4 14.5 0.00 0.00 0.00 44 1016.6
20260506185535 9 135 9.7 25.7 0.00 0.00 0.00 44 1016.5
20260506184536 9 135 11.3 17.7 0.00 0.00 0.00 44 1016.6
20260506183515 9 135 11.3 16.1 0.00 0.00 0.00 43 1016.6
20260506182516 9 135 9.7 19.3 0.00 0.00 0.00 45 1016.7
20260506181516 9 135 8.0 17.7 0.00 0.00 0.00 45 1016.8
20260506180556 8 135 8.0 19.3 0.00 0.00 0.00 46 1016.7
20260506175516 8 135 6.4 14.5 0.00 0.00 0.00 45 1016.9
20260506174516 8 135 9.7 20.9 0.00 0.00 0.00 48 1016.9
20260506173515 7 135 9.7 20.9 0.00 0.00 0.00 48 1016.9
20260506172516 7 135 9.7 20.9 0.00 0.00 0.00 48 1016.9
20260506171535 7 135 8.0 14.5 0.00 0.00 0.00 49 1017.0
20260506170516 6 135 8.0 16.1 0.00 0.00 0.00 51 1017.0
20260506165515 6 135 6.4 14.5 0.00 0.00 0.00 51 1017.1
20260506164516 6 135 8.0 16.1 0.00 0.00 0.00 51 1017.1
20260506163516 6 158 9.7 19.3 0.00 0.00 0.00 50 1017.2
20260506162535 6 158 9.7 16.1 0.00 0.00 0.00 50 1017.3
20260506161516 6 135 8.0 16.1 0.00 0.00 0.00 51 1017.2
20260506160515 6 135 8.0 16.1 0.00 0.00 0.00 51 1017.2
20260506155537 6 135 8.0 14.5 0.00 0.00 0.00 51 1017.2
20260506154518 6 158 8.0 14.5 0.00 0.00 0.00 52 1017.1
20260506153517 6 158 8.0 16.1 0.00 0.00 0.00 52 1017.0
20260506152517 6 135 8.0 20.9 0.00 0.00 0.00 52 1017.0
20260506151517 6 135 6.4 12.9 0.00 0.00 0.00 55 1017.1
20260506150517 6 135 6.4 12.9 0.00 0.00 0.00 56 1017.0
20260506145515 5 135 4.8 11.3 0.00 0.00 0.00 57 1017.0
20260506144536 5 135 6.4 16.1 0.00 0.00 0.00 57 1016.9
20260506143516 5 135 4.8 11.3 0.00 0.00 0.00 58 1016.9
20260506142518 5 135 6.4 11.3 0.00 0.00 0.00 58 1016.9
20260506141517 5 135 6.4 12.9 0.00 0.00 0.00 58 1017.0
20260506140537 5 135 6.4 12.9 0.00 0.00 0.00 59 1017.0
20260506135516 5 135 6.4 14.5 0.00 0.00 0.00 59 1017.0
20260506134538 5 158 6.4 9.7 0.00 0.00 0.00 60 1017.0
20260506133518 4 135 9.7 17.7 0.00 0.00 0.00 60 1016.9
20260506132518 4 135 8.0 16.1 0.00 0.00 0.00 61 1016.8
20260506131518 4 135 6.4 12.9 0.00 0.00 0.00 60 1016.8
20260506130518 4 135 6.4 12.9 0.00 0.00 0.00 61 1016.5
20260506125537 4 135 4.8 8.0 0.00 0.00 0.00 62 1016.5
20260506124517 3 135 4.8 11.3 0.00 0.00 0.00 62 1016.4
20260506123517 3 135 3.2 8.0 0.00 0.00 0.00 63 1016.4
20260506122518 3 135 3.2 11.3 0.00 0.00 0.00 64 1016.1
20260506121537 3 135 3.2 4.8 0.00 0.00 0.00 63 1016.1
20260506120517 3 135 4.8 6.4 0.00 0.00 0.00 63 1016.0
20260506115518 3 135 4.8 6.4 0.00 0.00 0.00 63 1015.8
20260506114518 3 135 3.2 8.0 0.00 0.00 0.00 63 1015.6
20260506113517 3 135 3.2 8.0 0.00 0.00 0.00 64 1015.3
20260506112517 3 135 3.2 6.4 0.00 0.00 0.00 65 1015.5
20260506111517 3 135 1.6 6.4 0.00 0.00 0.00 64 1015.2
20260506110517 3 135 1.6 3.2 0.00 0.00 0.00 64 1015.1
20260506105517 3 0.0 0.0 0.00 0.00 0.00 63 1014.9
20260506104517 3 0.0 0.0 0.00 0.00 0.00 63 1014.7
20260506103517 3 0.0 0.0 0.00 0.00 0.00 62 1014.9
20260506102517 3 0.0 0.0 0.00 0.00 0.00 62 1015.1
20260506101517 3 0.0 0.0 0.00 0.00 0.00 62 1015.1
20260506100517 3 0.0 1.6 0.00 0.00 0.00 61 1015.3
20260506095517 3 135 1.6 4.8 0.00 0.00 0.00 61 1015.3
20260506094518 3 135 1.6 4.8 0.00 0.00 0.00 61 1015.2
20260506093517 3 135 3.2 4.8 0.00 0.00 0.00 61 1014.9
20260506092518 3 135 3.2 6.4 0.00 0.00 0.00 60 1014.9
20260506091517 3 135 1.6 4.8 0.00 0.00 0.00 60 1014.9
20260506090537 3 135 3.2 6.4 0.00 0.00 0.00 60 1014.8
20260506085557 3 135 3.2 6.4 0.00 0.00 0.00 61 1014.9
20260506084518 3 135 3.2 6.4 0.00 0.00 0.00 61 1014.7
20260506083537 3 135 3.2 8.0 0.00 0.00 0.00 61 1014.5
20260506082517 2 135 1.6 6.4 0.00 0.00 0.00 62 1014.7
20260506081517 2 135 1.6 6.4 0.00 0.00 0.00 62 1014.7
20260506080537 2 0.0 0.0 0.00 0.00 0.00 63 1014.3
20260506073517 2 0.0 0.0 0.00 0.00 0.00 62 1014.7
20260506072517 2 0.0 0.0 0.00 0.00 0.00 61 1014.5
20260506071517 2 0.0 0.0 0.00 0.00 0.00 61 1014.4
20260506070517 2 0.0 0.0 0.00 0.00 0.00 61 1014.3
20260506062517 3 0.0 0.0 0.00 0.00 0.00 58 1014.0
20260506061517 3 0.0 0.0 0.00 0.00 0.00 58 1014.2
20260506060517 3 0.0 0.0 0.00 0.00 0.00 58 1014.2